Temp_Advection
nan nan nan nan nan nan nan nan nan nan nan nan nan nan nan nan nan nan nan nan nan nan nan nan nan nan nan nan nan nan nan nan nan nan nan nan nan nan nan nan nan nan nan nan nan
nan 0 -0 -0 -0 -0 -0 -0 -0 -0 -0 -0 -0 -0 -0 -0 0 -0 -0 0 0 0 0 0 0 0 -0 -0 -0 -0 -0 0 0 0 0 -0 0 0 -0 -1 -1 -1 -0 0 nan
nan -0 -0 -0 -0 -0 -0 -0 0 -0 -0 -0 -0 -0 -0 -0 -0 -0 0 0 0 0 0 -0 -0 -0 -0 0 -0 0 -0 -0 0 -0 0 0 -0 -0 1 -1 -1 -0 -0 0 nan
nan -0 -0 -0 -0 -0 0 0 -0 -0 -0 -0 -0 -0 0 0 0 -0 0 0 0 -0 -0 -0 -0 0 0 -0 -0 -0 -0 -0 0 -0 0 0 -1 -1 -2 -0 -0 -0 0 0 nan
nan -0 0 0 0 0 0 -0 -0 -0 -0 -0 -0 0 0 -0 -0 0 0 -0 -0 -0 0 -0 -0 0 0 -0 0 0 -0 -0 -0 -0 0 -0 -0 -1 -1 -0 -0 0 0 -0 nan
nan -0 -0 -0 -0 -0 -0 -0 -0 -0 -0 -0 0 0 0 -0 -0 -0 -0 -0 -0 -0 -0 -0 -0 0 0 0 -0 -0 0 0 -0 -0 -0 0 -0 -0 -1 -0 -0 -0 -0 -0 nan
nan -0 -0 -0 -0 -0 -0 -0 0 -0 -0 -0 -0 0 -0 -0 0 -0 -0 -0 -0 -0 -0 0 0 -0 0 0 -0 0 -0 0 0 -0 0 0 -1 -1 -1 -0 -0 -0 -0 -0 nan
nan 0 -0 -0 -0 -0 0 0 0 0 -0 -0 -0 -0 -0 0 -0 0 0 0 0 0 0 0 0 0 -0 0 0 -0 -0 0 -0 -0 0 -0 1 -1 0 -0 -0 -0 -0 -0 nan
nan -0 -0 -0 0 0 0 0 0 -0 -0 -0 -0 -0 -0 0 0 0 0 0 -0 -0 -0 0 -0 -0 0 -0 -0 -0 -0 1 0 -0 -0 -0 1 -1 0 0 -0 -0 -0 -0 nan
nan -0 0 0 0 0 0 0 0 -0 -0 -0 -0 -0 -0 -0 -0 -0 -0 -0 0 0 0 -0 0 -0 -0 -0 -0 0 1 0 0 -0 -0 -0 2 -1 -0 0 -0 -0 -0 -0 nan
nan -0 0 0 0 0 -0 -0 -0 -0 -2 -1 -0 -0 -0 -0 -0 -0 0 0 0 0 -0 0 -0 0 -0 -0 -0 -0 -0 -0 0 0 -0 -1 1 0 0 0 0 0 -0 -0 nan
nan -0 -0 -0 -0 -0 -0 -0 -0 -0 -1 -0 -0 -0 -0 0 0 -0 0 0 0 -0 -0 -0 0 -0 -0 0 -0 -0 -0 -0 0 0 -0 -1 0 1 1 0 0 0 0 -0 nan
nan -0 -0 -0 -0 -0 -0 -1 -0 -0 -0 -0 0 -0 -0 -0 -0 -0 -0 0 0 0 0 -0 -0 -0 0 0 0 0 -0 -0 0 0 0 -1 -1 1 -0 0 0 0 0 -0 nan
nan -0 -0 -0 -0 -0 -0 -0 -0 -0 -0 -0 -0 -0 -0 -0 -0 -0 -0 0 0 0 -0 -0 -0 0 0 0 0 0 -0 -0 -0 -0 -0 -0 -1 1 -1 -1 -0 -0 -0 -0 nan
nan -0 -0 -0 -0 -0 -0 -0 -0 0 0 -0 -0 -0 0 -0 0 -0 -0 0 0 0 -0 -0 0 0 0 -0 0 -0 -0 -0 -0 0 -1 -0 -0 0 -1 -0 0 0 0 0 nan
nan -0 -0 -0 -0 -0 0 0 0 -0 1 -0 -0 -0 -0 -0 -0 -0 0 -0 0 -0 0 0 -0 -0 -0 -0 -0 0 -0 -0 -0 0 -0 -0 -0 -0 -0 -0 -0 0 0 0 nan
nan -0 -0 -0 -0 -0 -0 0 -0 0 -0 0 -0 -0 0 -0 -0 -0 0 0 -0 -0 0 0 -0 -0 0 -0 -0 0 0 -0 0 -0 -0 -0 -0 1 0 1 0 1 0 0 nan
nan -0 -0 -0 -0 -0 -0 -0 -0 -0 -0 -0 0 0 -0 -0 -0 0 -0 0 0 -0 -0 -0 0 0 0 -0 0 0 0 0 -0 -0 1 0 -1 0 -0 0 0 0 0 0 nan
nan -0 -0 -0 0 0 -0 -0 0 0 -0 -0 -0 -0 -0 -0 0 0 0 0 -0 0 0 0 0 -0 0 0 0 0 0 -0 -1 1 0 -1 1 1 -0 -0 -0 -0 0 0 nan
nan -0 -0 0 0 0 -0 0 1 0 0 0 -0 0 0 -0 -0 0 0 0 0 0 -0 0 -0 0 0 0 0 -0 0 0 0 -0 -1 0 0 0 -0 -0 0 0 0 0 nan
nan -0 0 0 0 0 0 1 0 0 0 0 0 0 0 0 0 0 0 -0 0 -0 0 0 0 0 -0 1 1 0 0 0 -0 -0 0 -1 -0 0 0 0 1 1 1 1 nan
nan 0 0 0 -0 0 0 0 0 0 0 0 0 0 0 0 0 0 0 0 0 -0 -0 0 -0 -0 1 -1 -0 -0 -1 0 0 0 0 0 -0 0 1 1 1 0 0 0 nan
nan 0 0 0 0 0 -0 0 -0 0 -0 0 0 0 0 0 0 0 0 0 0 -0 0 -0 -0 -0 0 -0 -0 -0 0 0 0 -0 -0 -1 1 -0 0 0 0 0 0 0 nan
nan 0 0 0 0 0 -0 0 0 0 0 0 0 0 0 0 0 0 0 0 0 0 0 -0 0 -0 -1 -0 1 1 1 -0 -0 -0 -0 -0 -0 0 1 1 1 1 0 0 nan
nan 0 0 0 0 0 0 0 0 0 0 0 0 0 0 0 0 0 0 0 0 0 -0 0 0 -0 -0 0 0 1 0 1 0 -1 -0 -0 -0 1 0 0 1 0 -0 -0 nan
nan 0 -0 0 0 0 0 0 0 0 0 0 0 0 0 0 0 0 0 0 0 0 0 0 0 -0 -0 -1 0 0 1 1 1 1 0 0 3 -1 -0 -0 0 0 0 -0 nan
nan nan nan nan nan nan nan nan nan nan nan nan nan nan nan nan nan nan nan nan nan nan nan nan nan nan nan nan nan nan nan nan nan nan nan nan nan nan nan nan nan nan nan nan nan
Wind_Speed
7 7 7 7 7 7 7 7 6 6 5 4 3 3 2 3 4 2 3 4 5 6 5 4 3 3 3 4 4 2 2 2 3 5 4 4 3 3 5 7 8 7 8 3 5
7 7 7 7 7 7 7 7 7 6 4 3 2 1 1 2 4 8 5 6 5 5 4 4 4 3 3 3 3 1 2 3 2 2 4 4 3 5 4 8 8 10 9 6 4
7 7 7 7 7 7 8 8 7 6 4 2 2 1 1 0 3 6 6 5 4 3 3 3 4 4 3 2 4 2 1 3 2 1 3 6 6 3 6 5 6 4 7 7 6
7 7 7 7 7 7 7 8 8 7 5 3 1 0 1 1 1 3 4 4 3 2 1 2 2 2 2 2 2 1 2 1 2 2 1 3 5 7 9 7 7 6 6 6 7
7 7 7 8 7 8 8 8 8 7 4 3 2 1 2 4 5 3 4 4 4 3 2 3 3 2 2 3 1 1 1 0 1 1 2 4 5 9 9 8 7 7 6 7 9
9 8 8 7 7 6 7 7 7 6 4 2 1 1 3 3 2 3 3 4 3 3 3 3 4 5 5 2 0 2 1 2 1 1 1 3 5 0 6 7 6 6 8 9 9
8 7 6 6 6 8 9 11 11 9 6 4 1 2 5 5 3 4 3 3 4 4 4 5 5 2 4 5 2 2 3 3 1 2 1 4 5 4 8 6 6 6 7 7 9
7 8 9 10 11 12 11 11 9 6 5 3 3 4 6 6 6 5 5 6 6 6 6 5 5 6 3 5 2 2 2 4 3 3 1 4 10 7 7 7 5 5 5 6 8
10 10 10 10 9 10 9 9 6 6 5 5 2 6 5 7 4 4 5 4 4 3 4 4 3 4 4 3 3 2 5 6 2 2 3 9 3 6 6 8 5 4 4 5 6
11 10 9 9 7 9 9 8 8 4 5 5 8 6 4 2 4 6 5 2 1 1 2 2 2 2 3 4 4 3 5 4 7 2 2 7 13 8 7 9 7 5 4 4 5
11 10 9 7 6 7 9 5 5 3 12 7 5 3 2 3 4 5 3 6 6 4 2 3 3 3 0 1 1 2 7 11 7 2 6 14 16 10 10 9 8 5 3 3 5
11 10 8 6 5 6 7 4 5 1 5 7 6 6 6 3 2 6 5 3 3 4 1 2 3 3 2 0 3 4 7 10 5 2 4 11 16 7 13 8 5 4 3 3 4
10 9 8 8 3 6 9 8 5 3 2 4 5 5 3 4 3 8 5 4 4 3 1 3 3 3 1 2 3 3 5 6 8 4 7 11 17 17 5 7 7 4 3 3 4
9 8 8 9 2 7 7 10 8 2 3 2 2 2 3 2 3 6 5 3 2 2 1 1 2 3 3 3 4 8 4 3 3 4 7 5 11 11 10 9 9 7 4 1 3
8 8 7 7 4 4 7 10 8 2 3 2 1 1 3 2 2 3 6 3 3 3 1 1 3 3 4 1 2 3 4 4 1 3 6 11 6 1 10 8 8 9 6 3 1
8 8 8 7 4 4 7 10 2 1 5 3 1 1 2 2 2 3 3 4 4 3 1 1 1 0 2 6 3 11 2 0 1 3 7 7 13 8 2 2 5 11 8 4 1
8 8 8 7 4 3 8 6 2 4 2 3 2 1 1 3 3 5 3 2 1 4 1 0 3 3 4 5 5 2 1 4 5 4 6 3 7 13 3 5 3 13 11 5 3
7 9 8 7 5 3 5 1 5 1 2 1 1 2 2 4 2 3 1 2 1 1 2 3 4 6 4 2 3 6 4 4 8 10 16 5 8 3 2 3 5 7 8 5 4
8 11 12 10 8 5 1 3 3 1 4 4 3 1 1 1 1 2 1 2 1 5 5 3 4 3 1 2 2 5 6 3 7 17 8 10 10 6 3 7 12 14 11 9 7
12 11 16 14 7 5 2 4 3 2 5 2 4 3 4 4 3 2 2 3 3 1 1 1 6 2 4 3 3 5 10 3 3 6 14 11 8 9 4 7 11 14 16 11 8
5 6 6 7 6 4 4 4 3 4 4 3 5 4 4 4 6 4 1 3 3 4 2 4 3 2 3 8 11 4 5 5 4 9 13 16 12 3 7 6 7 10 13 11 9
4 4 5 9 3 1 2 3 3 4 3 2 1 4 5 7 5 7 7 3 8 11 5 2 2 8 13 3 2 2 11 16 10 11 9 11 16 2 6 5 5 6 7 6 7
5 7 8 10 4 4 2 2 2 4 4 5 5 5 3 6 4 8 5 2 11 9 6 7 4 6 6 2 1 6 6 7 7 6 19 16 15 3 4 8 8 7 5 6 7
8 2 3 8 5 3 5 4 4 4 3 3 3 4 4 6 6 3 7 4 10 8 6 9 7 12 17 19 12 10 12 10 13 13 17 18 21 17 13 10 11 7 5 7 8
10 4 4 2 4 3 3 6 5 5 4 6 4 9 7 6 5 8 7 4 7 7 12 7 17 18 25 23 22 23 21 19 17 20 20 21 19 15 6 4 7 5 4 5 7
13 6 5 4 4 5 3 5 8 3 6 5 5 7 7 5 7 6 7 8 13 10 10 8 15 16 25 22 25 27 22 22 23 21 21 20 21 6 2 1 3 3 4 5 9
14 12 8 5 4 2 3 3 5 6 2 1 3 3 6 9 9 10 10 12 15 10 15 15 14 14 23 20 16 17 11 6 6 3 4 11 7 4 1 4 5 5 3 6 12
Wind_Direction
40 36 34 32 31 26 26 28 31 40 45 41 46 58 60 54 61 63 36 34 44 53 55 74 58 66 65 60 56 78 191 148 151 174 106 137 149 58 71 105 63 55 73 38 18
24 23 19 18 16 16 12 12 17 19 28 37 44 56 34 72 89 56 57 57 56 54 62 84 76 94 58 37 15 328 246 132 142 159 137 145 153 127 152 110 85 70 45 40 30
14 10 8 6 4 3 0 359 3 3 4 20 37 345 232 110 98 44 59 54 55 52 39 58 70 86 81 45 13 15 353 135 135 82 160 153 128 83 143 94 55 57 26 24 18
6 3 357 354 355 353 350 350 348 348 351 354 352 237 198 107 173 40 32 29 25 14 21 59 76 94 110 137 44 197 54 80 128 39 135 146 111 77 45 105 101 86 64 41 28
358 353 349 344 347 349 346 341 338 335 333 327 296 230 146 90 79 35 28 24 22 38 76 104 79 90 126 110 135 230 96 115 340 344 82 112 72 120 95 105 92 77 63 45 37
353 348 342 337 336 336 334 334 331 322 307 294 262 218 137 108 64 20 17 22 22 55 72 101 118 116 103 90 348 80 26 299 332 240 227 217 142 76 137 127 91 72 53 44 35
352 341 336 336 343 347 355 355 348 342 341 354 356 131 111 108 72 30 39 39 49 70 83 100 120 98 120 125 104 116 259 255 270 298 218 162 178 90 137 140 95 73 61 45 34
355 351 357 359 358 356 354 344 335 335 344 8 87 127 94 115 84 61 88 69 72 79 94 98 114 116 80 122 99 204 236 243 73 331 127 193 252 138 176 175 129 96 75 57 39
354 359 359 358 355 351 348 337 338 352 38 14 69 126 92 116 99 55 61 70 62 66 80 89 116 97 123 185 214 200 266 237 221 69 297 222 262 152 172 179 154 108 81 68 48
350 353 356 357 2 356 356 348 346 17 23 58 74 112 98 350 354 347 336 344 154 97 48 64 63 178 155 203 273 227 241 228 254 87 230 248 260 171 174 182 164 143 116 82 52
348 350 353 357 17 9 1 347 355 355 32 59 25 71 49 343 37 16 57 95 95 79 60 24 232 235 90 313 41 263 264 267 267 314 299 266 274 208 186 181 180 167 136 87 48
348 351 356 2 20 16 22 47 50 46 73 60 62 69 49 55 78 40 78 89 80 99 43 217 270 46 62 69 251 253 280 280 277 241 256 280 268 239 193 200 195 176 139 74 43
350 351 355 358 332 9 23 37 15 3 75 48 67 61 40 58 66 27 56 71 71 114 58 295 84 103 185 182 232 244 262 294 293 319 239 295 274 206 185 181 163 136 121 73 40
345 350 354 355 358 2 11 0 354 2 220 112 32 39 19 95 69 48 49 74 91 87 16 26 107 166 178 226 229 280 358 289 305 311 288 353 290 245 177 175 188 181 171 120 37
329 336 347 354 339 6 347 340 343 112 296 87 80 150 32 92 121 35 36 41 105 116 227 14 172 182 225 30 228 58 76 66 40 268 306 227 247 268 146 191 192 186 176 169 23
317 322 328 332 321 344 342 338 352 233 252 130 153 311 202 56 54 7 44 66 102 129 152 299 99 325 92 73 64 139 118 80 164 225 255 242 219 283 44 104 160 195 191 193 256
304 310 314 320 309 316 342 341 307 219 89 140 140 37 3 16 49 27 23 31 307 314 205 309 157 119 149 126 124 148 168 294 250 191 259 100 231 263 184 191 220 191 188 199 254
299 309 315 308 305 288 332 264 222 60 129 141 136 98 3 2 65 16 7 243 170 33 295 282 244 181 158 256 196 183 212 235 274 284 296 200 250 270 107 170 185 189 201 219 260
293 306 305 299 284 234 272 230 255 165 117 156 144 115 137 98 333 317 257 236 123 199 217 222 240 147 102 155 212 150 208 8 286 270 273 252 259 205 202 229 216 217 217 224 250
285 284 282 267 223 198 212 240 208 138 134 166 194 196 221 179 229 215 215 155 164 211 310 103 288 220 130 136 74 234 142 187 200 258 261 254 262 255 239 234 223 220 217 220 251
279 276 237 222 199 200 226 221 165 175 165 189 198 214 212 199 213 206 223 163 173 130 89 156 225 179 181 206 217 180 213 228 281 250 262 274 263 166 229 243 220 215 204 219 254
228 267 222 193 179 204 214 190 151 160 175 187 182 224 210 179 203 219 221 232 164 152 172 152 239 255 257 102 355 312 252 236 238 240 243 273 266 215 255 244 211 184 198 235 270
186 240 240 192 227 207 148 180 199 166 204 178 186 214 179 185 233 214 197 137 164 168 187 170 210 286 244 159 167 234 211 231 257 270 259 263 272 141 228 226 220 213 219 258 293
158 246 210 193 202 179 166 193 191 206 184 182 150 145 165 203 224 236 202 193 190 216 203 178 224 237 259 274 297 253 235 222 231 254 263 251 266 265 244 229 216 213 242 282 299
165 214 179 213 211 160 169 164 175 198 199 194 186 215 186 208 220 231 235 251 219 231 248 261 261 261 262 266 269 269 261 254 230 250 250 264 266 263 289 244 202 213 267 285 296
151 180 162 129 123 141 186 206 205 185 168 211 223 198 187 209 229 247 261 260 265 265 256 241 270 273 274 276 273 271 260 254 253 253 268 263 269 83 61 313 230 252 263 283 305
180 184 161 146 117 148 211 186 208 182 171 119 180 197 218 249 261 268 262 261 255 248 260 259 268 270 272 283 289 284 286 299 318 20 321 270 326 3 81 284 276 269 252 303 313
Height
1558 1557 1555 1553 1552 1551 1550 1549 1548 1547 1547 1547 1546 1546 1546 1546 1544 1544 1544 1545 1544 1543 1544 1544 1544 1544 1544 1544 1544 1544 1542 1542 1547 1549 1550 1556 1556 1558 1559 1560 1562 1565 1568 1569 1567
1558 1557 1556 1554 1553 1551 1550 1549 1548 1547 1547 1546 1546 1546 1546 1545 1545 1544 1546 1544 1544 1544 1545 1545 1545 1546 1547 1547 1547 1546 1542 1545 1550 1551 1551 1555 1556 1558 1560 1562 1568 1570 1569 1568 1567
1559 1557 1556 1554 1553 1551 1550 1549 1548 1547 1547 1546 1545 1546 1545 1545 1546 1547 1546 1545 1545 1545 1545 1545 1546 1547 1548 1549 1550 1549 1544 1552 1553 1555 1554 1554 1556 1558 1560 1565 1572 1572 1571 1568 1567
1559 1557 1556 1554 1553 1552 1550 1549 1547 1547 1546 1545 1545 1545 1545 1545 1547 1547 1546 1545 1545 1545 1545 1546 1547 1548 1549 1549 1552 1551 1554 1554 1555 1556 1556 1557 1559 1561 1563 1570 1571 1571 1570 1570 1567
1558 1557 1555 1554 1552 1550 1549 1548 1547 1547 1546 1545 1545 1544 1544 1545 1547 1547 1546 1546 1545 1545 1546 1545 1548 1549 1548 1551 1553 1551 1555 1555 1556 1556 1557 1557 1559 1562 1571 1572 1572 1572 1571 1570 1569
1558 1556 1555 1553 1552 1550 1549 1548 1547 1546 1546 1544 1544 1544 1544 1546 1548 1546 1546 1546 1546 1546 1546 1546 1547 1549 1551 1553 1552 1556 1557 1556 1556 1556 1557 1558 1562 1562 1573 1572 1572 1572 1572 1570 1569
1558 1556 1555 1553 1551 1549 1547 1545 1544 1543 1543 1542 1542 1543 1543 1548 1547 1547 1546 1547 1547 1547 1548 1548 1548 1551 1552 1554 1555 1556 1554 1555 1557 1557 1555 1557 1560 1565 1572 1573 1573 1572 1571 1571 1570
1557 1556 1553 1551 1549 1547 1545 1545 1544 1544 1542 1542 1541 1542 1545 1548 1547 1548 1547 1547 1548 1548 1549 1549 1550 1551 1553 1555 1556 1555 1555 1547 1557 1557 1556 1557 1539 1568 1570 1571 1572 1571 1571 1571 1570
1557 1555 1553 1551 1549 1548 1546 1545 1544 1543 1542 1541 1542 1542 1548 1549 1549 1549 1548 1548 1549 1550 1550 1551 1552 1553 1555 1552 1551 1553 1538 1549 1550 1559 1558 1555 1544 1568 1569 1570 1572 1572 1572 1571 1571
1557 1555 1553 1551 1549 1548 1546 1545 1543 1543 1543 1543 1544 1546 1550 1551 1550 1549 1548 1548 1549 1550 1552 1552 1553 1552 1553 1549 1538 1540 1545 1555 1548 1557 1557 1552 1548 1565 1568 1569 1569 1570 1571 1571 1570
1557 1555 1553 1551 1550 1549 1547 1546 1547 1546 1545 1549 1551 1551 1551 1551 1551 1549 1548 1548 1549 1551 1550 1554 1550 1543 1548 1554 1556 1556 1554 1551 1550 1561 1558 1548 1544 1555 1566 1568 1569 1570 1571 1571 1570
1556 1554 1553 1551 1550 1549 1548 1547 1547 1550 1552 1551 1551 1551 1551 1551 1552 1550 1549 1551 1550 1550 1555 1553 1546 1558 1560 1561 1560 1559 1556 1551 1554 1563 1562 1550 1545 1548 1562 1564 1568 1570 1571 1571 1570
1556 1554 1553 1551 1550 1550 1548 1549 1548 1548 1551 1554 1552 1552 1553 1553 1552 1552 1551 1552 1553 1552 1554 1550 1557 1561 1560 1561 1560 1559 1559 1557 1558 1562 1562 1558 1531 1539 1562 1565 1567 1569 1570 1571 1570
1555 1554 1553 1551 1552 1549 1548 1548 1547 1547 1545 1555 1554 1554 1555 1553 1554 1553 1552 1554 1555 1553 1555 1555 1561 1560 1560 1560 1560 1558 1567 1565 1566 1563 1549 1561 1529 1525 1548 1558 1563 1567 1569 1570 1569
1554 1553 1551 1551 1551 1550 1551 1548 1547 1548 1541 1557 1554 1554 1554 1555 1556 1555 1553 1551 1552 1554 1557 1549 1558 1559 1558 1560 1562 1564 1570 1570 1572 1570 1571 1555 1563 1506 1545 1550 1557 1563 1566 1568 1567
1553 1552 1551 1551 1551 1550 1548 1547 1547 1545 1537 1551 1553 1554 1554 1554 1554 1553 1552 1552 1554 1556 1558 1557 1562 1561 1561 1566 1566 1571 1570 1573 1574 1571 1566 1544 1549 1510 1533 1548 1556 1561 1563 1565 1565
1551 1551 1551 1551 1551 1549 1548 1548 1546 1539 1548 1549 1550 1553 1552 1552 1553 1555 1555 1554 1552 1548 1550 1554 1558 1562 1563 1564 1570 1570 1568 1558 1549 1568 1534 1559 1555 1523 1546 1554 1555 1557 1561 1563 1562
1549 1549 1549 1549 1549 1549 1548 1549 1547 1535 1541 1551 1551 1552 1549 1555 1557 1557 1555 1551 1564 1559 1554 1554 1543 1560 1563 1562 1560 1567 1567 1561 1547 1524 1522 1555 1542 1520 1552 1554 1556 1559 1560 1560 1560
1546 1546 1547 1547 1548 1548 1549 1546 1533 1538 1545 1546 1550 1548 1552 1556 1558 1556 1557 1555 1558 1561 1554 1555 1556 1562 1563 1564 1564 1569 1571 1575 1566 1553 1570 1536 1530 1542 1551 1552 1553 1555 1557 1558 1557
1544 1542 1544 1545 1545 1546 1547 1538 1539 1543 1545 1546 1540 1546 1547 1553 1556 1555 1554 1558 1559 1563 1564 1565 1560 1561 1565 1566 1568 1565 1567 1572 1575 1566 1542 1521 1537 1534 1541 1543 1546 1550 1552 1554 1553
1542 1542 1537 1542 1544 1545 1540 1536 1540 1542 1544 1545 1543 1544 1546 1550 1552 1553 1552 1558 1559 1563 1565 1566 1570 1561 1566 1563 1555 1567 1565 1568 1569 1553 1543 1533 1520 1529 1535 1536 1540 1544 1547 1548 1548
1540 1542 1536 1538 1544 1543 1540 1540 1541 1542 1544 1544 1546 1545 1546 1550 1552 1552 1549 1550 1556 1559 1561 1567 1565 1555 1551 1566 1569 1565 1554 1553 1551 1544 1544 1543 1526 1531 1535 1539 1541 1543 1545 1545 1544
1534 1536 1535 1536 1535 1536 1540 1540 1541 1542 1542 1544 1544 1546 1549 1550 1552 1549 1551 1553 1555 1557 1560 1565 1563 1555 1538 1564 1566 1562 1556 1556 1554 1552 1541 1536 1519 1532 1535 1537 1538 1540 1541 1541 1541
1529 1533 1532 1532 1532 1531 1534 1535 1537 1539 1541 1542 1544 1546 1548 1548 1549 1548 1550 1552 1554 1555 1557 1559 1556 1553 1538 1533 1542 1552 1550 1556 1549 1537 1528 1522 1521 1523 1525 1532 1535 1536 1537 1537 1538
1523 1525 1525 1530 1530 1531 1532 1534 1535 1537 1539 1540 1542 1542 1544 1546 1548 1547 1549 1550 1553 1554 1554 1554 1547 1547 1536 1538 1539 1536 1537 1536 1543 1530 1526 1515 1516 1515 1524 1528 1531 1533 1535 1536 1536
1516 1523 1525 1527 1530 1531 1532 1534 1534 1535 1537 1537 1538 1538 1543 1545 1544 1544 1546 1548 1548 1549 1550 1548 1540 1540 1528 1533 1530 1522 1523 1523 1521 1522 1520 1517 1514 1528 1532 1532 1532 1532 1532 1533 1533
1509 1516 1518 1527 1528 1532 1530 1530 1532 1534 1537 1537 1537 1540 1542 1543 1545 1546 1547 1547 1545 1546 1545 1544 1541 1539 1523 1526 1523 1522 1519 1524 1523 1530 1534 1518 1524 1534 1533 1534 1533 1531 1531 1531 1530